User: anonymous   Login
Location: Unspecified
(0.0000°N, 0.0000°E)
Time: 03:50:51
(UTC+00:00)
Language:

Atlas Centaur 2 - Orbit

View from above orbital plane
View from above orbital plane
View from above satellite
View from above satellite

Ground track
Ground track

The orbit data is extracted from the following two-line orbital elements,

1   694U 63047A   17268.41164152 +.00000572 +00000-0 +60471-4 0  9993
2   694 030.3584 333.4388 0587517 181.0480 178.8892 14.02142209697179
Epoch (UTC): 25 September 2017 09:52:45
Eccentricity: 0.0587517
inclination: 30.3584°
perigee height: 459 km
apogee height: 1313 km
right ascension of ascending node: 333.4388°
argument of perigee: 181.0480°
revolutions per day: 14.02142209
mean anomaly at epoch: 178.8892°
orbit number at epoch: 69717

The dashed part of the orbit path shows where the satellite is in the earth's shadow,  

DLR